Time,TemperatureF,DewpointF,PressureIn,WindDirection,WindDirectionDegrees,WindSpeedMPH,WindSpeedGustMPH,Humidity,HourlyPrecipIn,Conditions,Clouds,dailyrainin,SoftwareType,DateUTC
2013-02-17 00:00:00,21.9,13.3,30.27,WNW,302,0.0,0.0,69,0.00,,,0.00,VWS V14.01,2013-02-17 05:00:00,
2013-02-17 00:01:00,21.9,13.3,30.27,WNW,302,0.0,0.0,69,0.00,,,0.00,VWS V14.01,2013-02-17 05:01:00,
2013-02-17 00:02:00,21.9,13.3,30.27,WNW,302,0.0,0.0,69,0.00,,,0.00,VWS V14.01,2013-02-17 05:02:00,
2013-02-17 00:07:00,21.9,13.6,30.27,WNW,302,0.0,0.0,70,0.00,,,0.00,VWS V14.01,2013-02-17 05:07:00,
2013-02-17 00:11:00,21.9,14.0,30.27,WNW,302,0.0,0.0,71,0.00,,,0.00,VWS V14.01,2013-02-17 05:11:00,
2013-02-17 00:16:00,21.8,14.2,30.27,WNW,302,0.0,0.0,72,0.00,,,0.00,VWS V14.01,2013-02-17 05:16:00,
2013-02-17 00:21:00,21.6,14.0,30.27,WNW,302,0.0,0.0,72,0.00,,,0.00,VWS V14.01,2013-02-17 05:21:00,
2013-02-17 00:26:00,21.4,14.1,30.27,WNW,302,0.0,0.0,73,0.00,,,0.00,VWS V14.01,2013-02-17 05:26:00,
2013-02-17 00:31:00,21.3,14.0,30.27,WNW,302,0.0,0.0,73,0.00,,,0.00,VWS V14.01,2013-02-17 05:31:00,
2013-02-17 00:36:00,21.1,14.1,30.26,WNW,302,0.0,0.0,74,0.00,,,0.00,VWS V14.01,2013-02-17 05:36:00,
2013-02-17 00:41:00,21.0,14.3,30.26,WNW,302,0.0,0.0,75,0.00,,,0.00,VWS V14.01,2013-02-17 05:41:00,
2013-02-17 00:46:00,20.8,14.1,30.26,WNW,302,0.0,0.0,75,0.00,,,0.00,VWS V14.01,2013-02-17 05:46:00,
2013-02-17 00:51:00,20.8,14.1,30.26,WNW,302,0.0,0.0,75,0.00,,,0.00,VWS V14.01,2013-02-17 05:51:00,
2013-02-17 00:56:00,20.7,14.0,30.27,WNW,302,0.0,0.0,75,0.00,,,0.00,VWS V14.01,2013-02-17 05:56:00,
2013-02-17 01:01:00,20.6,14.2,30.27,WNW,302,0.0,0.0,76,0.00,,,0.00,VWS V14.01,2013-02-17 06:01:00,
2013-02-17 01:06:00,20.6,13.9,30.27,WNW,302,0.0,0.0,75,0.00,,,0.00,VWS V14.01,2013-02-17 06:06:00,
2013-02-17 01:11:00,20.7,14.0,30.26,WNW,302,0.0,0.0,75,0.00,,,0.00,VWS V14.01,2013-02-17 06:11:00,
2013-02-17 01:16:00,20.8,14.1,30.26,WNW,302,0.0,0.0,75,0.00,,,0.00,VWS V14.01,2013-02-17 06:16:00,
2013-02-17 01:21:00,20.8,14.1,30.27,WNW,302,0.0,0.0,75,0.00,,,0.00,VWS V14.01,2013-02-17 06:21:00,
2013-02-17 01:26:00,20.9,13.9,30.27,WNW,302,0.0,1.0,74,0.00,,,0.00,VWS V14.01,2013-02-17 06:26:00,
2013-02-17 01:31:00,21.0,14.0,30.27,WNW,302,0.0,0.0,74,0.00,,,0.00,VWS V14.01,2013-02-17 06:31:00,
2013-02-17 01:36:00,21.1,14.1,30.26,WNW,302,0.0,0.0,74,0.00,,,0.00,VWS V14.01,2013-02-17 06:36:00,
2013-02-17 01:41:00,21.2,14.2,30.26,WNW,302,0.0,0.0,74,0.00,,,0.00,VWS V14.01,2013-02-17 06:41:00,
2013-02-17 01:46:00,21.1,14.1,30.26,WNW,302,0.0,0.0,74,0.00,,,0.00,VWS V14.01,2013-02-17 06:46:00,
2013-02-17 01:52:00,20.9,13.9,30.26,WNW,302,0.0,0.0,74,0.00,,,0.00,VWS V14.01,2013-02-17 06:52:00,
2013-02-17 01:57:00,20.7,14.0,30.26,WNW,302,0.0,0.0,75,0.00,,,0.00,VWS V14.01,2013-02-17 06:57:00,
2013-02-17 02:02:00,20.5,13.9,30.27,WNW,302,0.0,0.0,75,0.00,,,0.00,VWS V14.01,2013-02-17 07:02:00,
2013-02-17 02:07:00,20.4,13.8,30.27,WNW,302,0.0,0.0,75,0.00,,,0.00,VWS V14.01,2013-02-17 07:07:00,
2013-02-17 02:12:00,20.3,13.7,30.27,WNW,302,0.0,0.0,75,0.00,,,0.00,VWS V14.01,2013-02-17 07:12:00,
2013-02-17 02:17:00,20.2,13.6,30.27,WNW,302,0.0,0.0,75,0.00,,,0.00,VWS V14.01,2013-02-17 07:17:00,
2013-02-17 02:22:00,20.0,13.7,30.27,WNW,302,0.0,1.0,76,0.00,,,0.00,VWS V14.01,2013-02-17 07:22:00,
2013-02-17 02:27:00,20.0,13.7,30.27,WNW,302,0.0,0.0,76,0.00,,,0.00,VWS V14.01,2013-02-17 07:27:00,
2013-02-17 02:32:00,20.0,13.7,30.27,WNW,302,0.0,0.0,76,0.00,,,0.00,VWS V14.01,2013-02-17 07:32:00,
2013-02-17 02:37:00,19.8,13.8,30.27,WNW,302,0.0,0.0,77,0.00,,,0.00,VWS V14.01,2013-02-17 07:37:00,
2013-02-17 02:42:00,19.7,13.7,30.28,WNW,302,0.0,0.0,77,0.00,,,0.00,VWS V14.01,2013-02-17 07:42:00,
2013-02-17 02:47:00,19.7,13.7,30.28,WNW,302,0.0,0.0,77,0.00,,,0.00,VWS V14.01,2013-02-17 07:47:00,
2013-02-17 02:52:00,19.7,13.7,30.28,WNW,302,0.0,0.0,77,0.00,,,0.00,VWS V14.01,2013-02-17 07:52:00,
2013-02-17 02:57:00,19.8,13.8,30.28,WNW,302,0.0,0.0,77,0.00,,,0.00,VWS V14.01,2013-02-17 07:57:00,
2013-02-17 03:02:00,19.9,13.9,30.28,WNW,302,0.0,0.0,77,0.00,,,0.00,VWS V14.01,2013-02-17 08:02:00,
2013-02-17 03:07:00,19.9,13.9,30.28,WNW,302,0.0,0.0,77,0.00,,,0.00,VWS V14.01,2013-02-17 08:07:00,
2013-02-17 03:12:00,19.7,13.7,30.28,WNW,302,0.0,0.0,77,0.00,,,0.00,VWS V14.01,2013-02-17 08:12:00,
2013-02-17 03:17:00,19.7,14.0,30.28,WNW,302,0.0,0.0,78,0.00,,,0.00,VWS V14.01,2013-02-17 08:17:00,
2013-02-17 03:22:00,19.6,13.9,30.28,WNW,302,0.0,0.0,78,0.00,,,0.00,VWS V14.01,2013-02-17 08:22:00,
2013-02-17 03:27:00,19.4,13.7,30.28,WNW,302,0.0,0.0,78,0.00,,,0.00,VWS V14.01,2013-02-17 08:27:00,
2013-02-17 03:32:00,19.3,13.9,30.28,WNW,302,0.0,0.0,79,0.00,,,0.00,VWS V14.01,2013-02-17 08:32:00,
2013-02-17 03:37:00,19.3,13.9,30.28,WNW,302,0.0,0.0,79,0.00,,,0.00,VWS V14.01,2013-02-17 08:37:00,
2013-02-17 03:42:00,19.4,14.0,30.28,WNW,302,0.0,0.0,79,0.00,,,0.00,VWS V14.01,2013-02-17 08:42:00,
2013-02-17 03:47:00,19.4,14.0,30.28,WNW,302,0.0,0.0,79,0.00,,,0.00,VWS V14.01,2013-02-17 08:47:00,
2013-02-17 03:52:00,19.3,13.9,30.28,WNW,302,0.0,0.0,79,0.00,,,0.00,VWS V14.01,2013-02-17 08:52:00,
2013-02-17 03:57:00,19.2,13.8,30.28,WNW,302,0.0,0.0,79,0.00,,,0.00,VWS V14.01,2013-02-17 08:57:00,
2013-02-17 04:02:00,19.3,13.9,30.28,WNW,302,0.0,0.0,79,0.00,,,0.00,VWS V14.01,2013-02-17 09:02:00,
2013-02-17 04:07:00,19.3,13.9,30.28,WNW,302,0.0,0.0,79,0.00,,,0.00,VWS V14.01,2013-02-17 09:07:00,
2013-02-17 04:12:00,19.2,13.8,30.28,WNW,302,0.0,0.0,79,0.00,,,0.00,VWS V14.01,2013-02-17 09:12:00,
2013-02-17 04:17:00,19.2,13.8,30.28,WNW,302,0.0,0.0,79,0.00,,,0.00,VWS V14.01,2013-02-17 09:17:00,
2013-02-17 04:22:00,19.1,13.7,30.28,WNW,302,0.0,0.0,79,0.00,,,0.00,VWS V14.01,2013-02-17 09:22:00,
2013-02-17 04:27:00,18.9,13.5,30.28,WNW,302,0.0,0.0,79,0.00,,,0.00,VWS V14.01,2013-02-17 09:27:00,
2013-02-17 04:33:00,18.9,13.5,30.28,WNW,302,0.0,1.0,79,0.00,,,0.00,VWS V14.01,2013-02-17 09:33:00,
2013-02-17 04:38:00,18.9,13.8,30.28,WNW,302,0.0,0.0,80,0.00,,,0.00,VWS V14.01,2013-02-17 09:38:00,
2013-02-17 04:43:00,18.9,13.5,30.28,WNW,302,0.0,0.0,79,0.00,,,0.00,VWS V14.01,2013-02-17 09:43:00,
2013-02-17 04:48:00,18.8,13.7,30.28,WNW,302,0.0,0.0,80,0.00,,,0.00,VWS V14.01,2013-02-17 09:48:00,
2013-02-17 04:53:00,18.8,13.7,30.28,WNW,302,0.0,0.0,80,0.00,,,0.00,VWS V14.01,2013-02-17 09:53:00,
2013-02-17 04:58:00,18.6,13.5,30.28,WNW,302,0.0,0.0,80,0.00,,,0.00,VWS V14.01,2013-02-17 09:58:00,
2013-02-17 05:03:00,18.6,13.5,30.28,WNW,302,0.0,0.0,80,0.00,,,0.00,VWS V14.01,2013-02-17 10:03:00,
2013-02-17 05:08:00,18.6,13.8,30.29,WNW,302,0.0,0.0,81,0.00,,,0.00,VWS V14.01,2013-02-17 10:08:00,
2013-02-17 05:13:00,18.7,13.9,30.29,WNW,302,0.0,0.0,81,0.00,,,0.00,VWS V14.01,2013-02-17 10:13:00,
2013-02-17 05:18:00,18.6,13.8,30.29,WNW,302,0.0,0.0,81,0.00,,,0.00,VWS V14.01,2013-02-17 10:18:00,
2013-02-17 05:23:00,18.6,13.8,30.29,WNW,302,0.0,0.0,81,0.00,,,0.00,VWS V14.01,2013-02-17 10:23:00,
2013-02-17 05:28:00,18.7,13.9,30.29,WNW,302,0.0,0.0,81,0.00,,,0.00,VWS V14.01,2013-02-17 10:28:00,
2013-02-17 05:33:00,18.7,13.9,30.29,WNW,302,0.0,0.0,81,0.00,,,0.00,VWS V14.01,2013-02-17 10:33:00,
2013-02-17 05:38:00,18.5,13.6,30.30,WNW,302,0.0,0.0,81,0.00,,,0.00,VWS V14.01,2013-02-17 10:38:00,
2013-02-17 05:43:00,18.5,13.6,30.30,WNW,302,0.0,0.0,81,0.00,,,0.00,VWS V14.01,2013-02-17 10:43:00,
2013-02-17 05:48:00,18.4,13.6,30.30,WNW,302,0.0,0.0,81,0.00,,,0.00,VWS V14.01,2013-02-17 10:48:00,
2013-02-17 05:53:00,18.4,13.8,30.30,WNW,302,0.0,0.0,82,0.00,,,0.00,VWS V14.01,2013-02-17 10:53:00,
2013-02-17 05:58:00,18.3,13.7,30.30,WNW,302,0.0,0.0,82,0.00,,,0.00,VWS V14.01,2013-02-17 10:58:00,
2013-02-17 06:03:00,18.3,13.7,30.31,WNW,302,0.0,0.0,82,0.00,,,0.00,VWS V14.01,2013-02-17 11:03:00,
2013-02-17 06:08:00,18.5,13.9,30.31,WNW,302,0.0,0.0,82,0.00,,,0.00,VWS V14.01,2013-02-17 11:08:00,
2013-02-17 06:13:00,18.5,13.9,30.31,WNW,302,0.0,0.0,82,0.00,,,0.00,VWS V14.01,2013-02-17 11:13:00,
2013-02-17 06:18:00,18.5,13.9,30.31,WNW,302,0.0,0.0,82,0.00,,,0.00,VWS V14.01,2013-02-17 11:18:00,
2013-02-17 06:23:00,18.6,14.0,30.31,WNW,302,0.0,0.0,82,0.00,,,0.00,VWS V14.01,2013-02-17 11:23:00,
2013-02-17 06:28:00,18.6,14.0,30.32,WNW,302,0.0,0.0,82,0.00,,,0.00,VWS V14.01,2013-02-17 11:28:00,
2013-02-17 06:33:00,18.5,13.9,30.31,WNW,302,0.0,0.0,82,0.00,,,0.00,VWS V14.01,2013-02-17 11:33:00,
2013-02-17 06:38:00,18.4,13.8,30.32,WNW,302,0.0,0.0,82,0.00,,,0.00,VWS V14.01,2013-02-17 11:38:00,
2013-02-17 06:43:00,18.2,13.6,30.32,WNW,302,0.0,0.0,82,0.00,,,0.00,VWS V14.01,2013-02-17 11:43:00,
2013-02-17 06:48:00,18.2,13.6,30.32,WNW,302,0.0,0.0,82,0.00,,,0.00,VWS V14.01,2013-02-17 11:48:00,
2013-02-17 06:53:00,18.1,13.8,30.33,WNW,302,0.0,0.0,83,0.00,,,0.00,VWS V14.01,2013-02-17 11:53:00,
2013-02-17 06:58:00,18.0,13.7,30.32,WNW,302,0.0,0.0,83,0.00,,,0.00,VWS V14.01,2013-02-17 11:58:00,
2013-02-17 07:03:00,17.9,13.6,30.33,WNW,302,0.0,0.0,83,0.00,,,0.00,VWS V14.01,2013-02-17 12:03:00,
2013-02-17 07:09:00,17.9,13.6,30.33,WNW,302,0.0,0.0,83,0.00,,,0.00,VWS V14.01,2013-02-17 12:09:00,
2013-02-17 07:14:00,18.0,14.0,30.33,WNW,302,0.0,0.0,84,0.00,,,0.00,VWS V14.01,2013-02-17 12:14:00,
2013-02-17 07:19:00,18.1,14.1,30.33,WNW,302,0.0,0.0,84,0.00,,,0.00,VWS V14.01,2013-02-17 12:19:00,
2013-02-17 07:24:00,18.1,13.8,30.34,WNW,302,0.0,0.0,83,0.00,,,0.00,VWS V14.01,2013-02-17 12:24:00,
2013-02-17 07:29:00,18.0,13.7,30.34,WNW,302,0.0,0.0,83,0.00,,,0.00,VWS V14.01,2013-02-17 12:29:00,
2013-02-17 07:34:00,17.9,13.6,30.34,WNW,302,0.0,0.0,83,0.00,,,0.00,VWS V14.01,2013-02-17 12:34:00,
2013-02-17 07:39:00,17.8,13.5,30.34,WNW,302,0.0,0.0,83,0.00,,,0.00,VWS V14.01,2013-02-17 12:39:00,
2013-02-17 07:44:00,17.7,13.4,30.34,WNW,302,0.0,0.0,83,0.00,,,0.00,VWS V14.01,2013-02-17 12:44:00,
2013-02-17 07:49:00,17.6,13.6,30.34,NW,322,0.0,0.0,84,0.00,,,0.00,VWS V14.01,2013-02-17 12:49:00,
2013-02-17 07:54:00,17.6,13.6,30.34,NW,322,0.0,0.0,84,0.00,,,0.00,VWS V14.01,2013-02-17 12:54:00,
2013-02-17 07:59:00,17.7,13.7,30.34,NW,322,0.0,0.0,84,0.00,,,0.00,VWS V14.01,2013-02-17 12:59:00,
2013-02-17 08:04:00,17.7,14.0,30.35,NW,322,0.0,0.0,85,0.00,,,0.00,VWS V14.01,2013-02-17 13:04:00,
2013-02-17 08:09:00,17.8,14.1,30.35,NW,322,0.0,0.0,85,0.00,,,0.00,VWS V14.01,2013-02-17 13:09:00,
2013-02-17 08:14:00,18.1,14.4,30.35,West,270,0.0,0.0,85,0.00,,,0.00,VWS V14.01,2013-02-17 13:14:00,
2013-02-17 08:19:00,18.4,14.6,30.35,West,270,0.0,0.0,85,0.00,,,0.00,VWS V14.01,2013-02-17 13:19:00,
2013-02-17 08:24:00,18.7,16.8,30.36,West,270,0.0,0.0,92,0.00,,,0.00,VWS V14.01,2013-02-17 13:24:00,
2013-02-17 08:29:00,19.0,15.0,30.36,West,269,0.0,0.0,84,0.00,,,0.00,VWS V14.01,2013-02-17 13:29:00,
2013-02-17 08:34:00,19.3,15.3,30.36,West,269,0.0,0.0,84,0.00,,,0.00,VWS V14.01,2013-02-17 13:34:00,
2013-02-17 08:39:00,19.7,15.7,30.36,West,270,0.0,0.0,84,0.00,,,0.00,VWS V14.01,2013-02-17 13:39:00,
2013-02-17 08:44:00,20.3,16.0,30.37,West,269,0.0,0.0,83,0.00,,,0.00,VWS V14.01,2013-02-17 13:44:00,
2013-02-17 08:49:00,20.8,16.5,30.38,West,270,0.0,1.0,83,0.00,,,0.00,VWS V14.01,2013-02-17 13:49:00,
2013-02-17 08:54:00,21.4,16.8,30.38,West,270,0.0,0.0,82,0.00,,,0.00,VWS V14.01,2013-02-17 13:54:00,
2013-02-17 08:59:00,21.9,17.0,30.39,West,273,0.0,0.0,81,0.00,,,0.00,VWS V14.01,2013-02-17 13:59:00,
2013-02-17 09:04:00,22.5,17.3,30.39,West,273,0.0,0.0,80,0.00,,,0.00,VWS V14.01,2013-02-17 14:04:00,
2013-02-17 09:09:00,23.0,17.5,30.39,West,272,2.0,3.0,79,0.00,,,0.00,VWS V14.01,2013-02-17 14:09:00,
2013-02-17 09:14:00,23.4,17.6,30.39,West,278,2.0,2.0,78,0.00,,,0.00,VWS V14.01,2013-02-17 14:14:00,
2013-02-17 09:19:00,23.7,17.9,30.39,West,279,0.0,0.0,78,0.00,,,0.00,VWS V14.01,2013-02-17 14:19:00,
2013-02-17 09:24:00,24.1,18.0,30.39,West,279,0.0,1.0,77,0.00,,,0.00,VWS V14.01,2013-02-17 14:24:00,
2013-02-17 09:29:00,24.5,18.0,30.39,West,279,1.0,2.0,76,0.00,,,0.00,VWS V14.01,2013-02-17 14:29:00,
2013-02-17 09:34:00,24.8,18.3,30.39,NW,309,2.0,3.0,76,0.00,,,0.00,VWS V14.01,2013-02-17 14:34:00,
2013-02-17 09:39:00,25.1,18.3,30.39,NW,308,1.0,2.0,75,0.00,,,0.00,VWS V14.01,2013-02-17 14:39:00,
2013-02-17 09:44:00,25.4,18.3,30.39,NW,308,2.0,4.0,74,0.00,,,0.00,VWS V14.01,2013-02-17 14:44:00,
2013-02-17 09:49:00,25.7,18.3,30.39,NW,308,1.0,1.0,73,0.00,,,0.00,VWS V14.01,2013-02-17 14:49:00,
2013-02-17 09:55:00,25.9,18.5,30.40,West,281,0.0,0.0,73,0.00,,,0.00,VWS V14.01,2013-02-17 14:55:00,
2013-02-17 10:00:00,26.3,18.5,30.39,West,279,2.0,4.0,72,0.00,,,0.00,VWS V14.01,2013-02-17 15:00:00,
2013-02-17 10:05:00,26.4,18.6,30.39,West,270,3.0,3.0,72,0.00,,,0.00,VWS V14.01,2013-02-17 15:05:00,
2013-02-17 10:10:00,26.3,18.2,30.39,WNW,283,0.0,0.0,71,0.00,,,0.00,VWS V14.01,2013-02-17 15:10:00,
2013-02-17 10:15:00,26.7,18.2,30.39,WNW,283,1.0,3.0,70,0.00,,,0.00,VWS V14.01,2013-02-17 15:15:00,
2013-02-17 10:20:00,26.7,17.9,30.40,West,279,3.0,3.0,69,0.00,,,0.00,VWS V14.01,2013-02-17 15:20:00,
2013-02-17 10:25:00,27.0,18.2,30.39,West,279,0.0,0.0,69,0.00,,,0.00,VWS V14.01,2013-02-17 15:25:00,
2013-02-17 10:30:00,27.4,18.6,30.39,NW,304,2.0,4.0,69,0.01,,,0.01,VWS V14.01,2013-02-17 15:30:00,
2013-02-17 10:35:00,27.8,19.0,30.40,NW,305,0.0,3.0,69,0.01,,,0.01,VWS V14.01,2013-02-17 15:35:00,
2013-02-17 10:40:00,28.3,19.5,30.40,NW,305,0.0,1.0,69,0.01,,,0.01,VWS V14.01,2013-02-17 15:40:00,
2013-02-17 10:45:00,28.7,19.1,30.40,WNW,303,3.0,4.0,67,0.01,,,0.01,VWS V14.01,2013-02-17 15:45:00,
2013-02-17 10:50:00,28.7,19.5,30.40,WNW,302,0.0,1.0,68,0.01,,,0.01,VWS V14.01,2013-02-17 15:50:00,
2013-02-17 10:55:00,29.0,19.1,30.40,NW,308,3.0,3.0,66,0.01,,,0.01,VWS V14.01,2013-02-17 15:55:00,
2013-02-17 11:00:00,29.4,19.5,30.40,NW,309,1.0,1.0,66,0.01,,,0.01,VWS V14.01,2013-02-17 16:00:00,
2013-02-17 11:05:00,29.8,19.8,30.40,SW,219,2.0,4.0,66,0.01,,,0.01,VWS V14.01,2013-02-17 16:05:00,
2013-02-17 11:10:00,29.6,19.3,30.41,SW,231,3.0,6.0,65,0.01,,,0.01,VWS V14.01,2013-02-17 16:10:00,
2013-02-17 11:15:00,29.6,19.3,30.41,SW,226,5.0,5.0,65,0.01,,,0.01,VWS V14.01,2013-02-17 16:15:00,
2013-02-17 11:20:00,29.7,19.0,30.40,West,275,4.0,6.0,64,0.01,,,0.01,VWS V14.01,2013-02-17 16:20:00,
2013-02-17 11:25:00,30.1,19.0,30.40,NW,321,4.0,5.0,63,0.01,,,0.01,VWS V14.01,2013-02-17 16:25:00,
2013-02-17 11:30:00,30.6,20.2,30.40,NNW,339,2.0,3.0,65,0.03,,,0.03,VWS V14.01,2013-02-17 16:30:00,
2013-02-17 11:35:00,31.4,19.5,30.40,WSW,244,0.0,3.0,61,0.02,,,0.03,VWS V14.01,2013-02-17 16:35:00,
2013-02-17 21:34:00,31.9,18.0,30.29,SW,225,1.0,1.0,56,0.00,,,0.20,VWS V14.01,2013-02-18 02:34:00,
2013-02-17 21:39:00,31.9,18.0,30.29,SW,225,0.0,0.0,56,0.00,,,0.20,VWS V14.01,2013-02-18 02:39:00,
2013-02-17 21:44:00,31.9,18.4,30.29,SW,225,0.0,2.0,57,0.00,,,0.20,VWS V14.01,2013-02-18 02:44:00,
2013-02-17 21:49:00,31.8,18.3,30.29,SW,225,0.0,0.0,57,0.00,,,0.20,VWS V14.01,2013-02-18 02:49:00,
2013-02-17 21:54:00,31.8,18.3,30.30,SW,225,0.0,1.0,57,0.00,,,0.20,VWS V14.01,2013-02-18 02:54:00,
2013-02-17 21:59:00,31.9,18.4,30.29,SW,225,0.0,0.0,57,0.00,,,0.20,VWS V14.01,2013-02-18 02:59:00,
2013-02-17 22:04:00,32.0,18.5,30.29,SW,225,0.0,0.0,57,0.00,,,0.20,VWS V14.01,2013-02-18 03:04:00,
2013-02-17 22:09:00,32.1,18.6,30.29,SW,225,0.0,1.0,57,0.00,,,0.20,VWS V14.01,2013-02-18 03:09:00,
2013-02-17 22:14:00,32.2,18.7,30.29,SW,225,0.0,0.0,57,0.00,,,0.20,VWS V14.01,2013-02-18 03:14:00,
2013-02-17 22:19:00,32.1,19.0,30.29,SW,225,0.0,1.0,58,0.00,,,0.20,VWS V14.01,2013-02-18 03:19:00,
2013-02-17 22:24:00,32.1,19.0,30.29,SW,225,0.0,0.0,58,0.00,,,0.20,VWS V14.01,2013-02-18 03:24:00,
2013-02-17 22:29:00,32.1,19.0,30.29,SW,225,0.0,1.0,58,0.00,,,0.20,VWS V14.01,2013-02-18 03:29:00,
2013-02-17 22:34:00,32.1,19.4,30.30,SW,225,0.0,0.0,59,0.00,,,0.20,VWS V14.01,2013-02-18 03:34:00,
2013-02-17 22:39:00,32.1,19.4,30.29,SW,225,0.0,1.0,59,0.00,,,0.20,VWS V14.01,2013-02-18 03:39:00,
2013-02-17 22:44:00,32.2,19.5,30.30,SW,225,2.0,2.0,59,0.00,,,0.20,VWS V14.01,2013-02-18 03:44:00,
2013-02-17 22:49:00,32.3,19.6,30.30,SW,225,0.0,0.0,59,0.00,,,0.20,VWS V14.01,2013-02-18 03:49:00,
2013-02-17 22:54:00,32.3,19.6,30.29,SW,219,0.0,0.0,59,0.00,,,0.20,VWS V14.01,2013-02-18 03:54:00,
2013-02-17 22:59:00,32.2,19.9,30.29,SW,219,0.0,0.0,60,0.00,,,0.20,VWS V14.01,2013-02-18 03:59:00,
2013-02-17 23:04:00,32.1,19.8,30.29,SW,219,1.0,1.0,60,0.00,,,0.20,VWS V14.01,2013-02-18 04:04:00,
2013-02-17 23:10:00,32.1,19.8,30.29,SW,219,0.0,0.0,60,0.00,,,0.20,VWS V14.01,2013-02-18 04:10:00,
2013-02-17 23:15:00,32.0,19.7,30.28,SW,219,0.0,0.0,60,0.00,,,0.20,VWS V14.01,2013-02-18 04:15:00,
2013-02-17 23:20:00,32.1,19.4,30.29,SW,219,0.0,2.0,59,0.00,,,0.20,VWS V14.01,2013-02-18 04:20:00,
2013-02-17 23:25:00,32.2,19.9,30.29,SW,219,1.0,2.0,60,0.00,,,0.20,VWS V14.01,2013-02-18 04:25:00,
2013-02-17 23:30:00,32.4,20.1,30.29,SW,219,0.0,1.0,60,0.00,,,0.20,VWS V14.01,2013-02-18 04:30:00,
2013-02-17 23:35:00,32.4,19.7,30.29,SW,219,2.0,2.0,59,0.00,,,0.20,VWS V14.01,2013-02-18 04:35:00,
2013-02-17 23:40:00,32.6,19.9,30.29,SW,218,0.0,1.0,59,0.00,,,0.20,VWS V14.01,2013-02-18 04:40:00,
2013-02-17 23:45:00,32.6,19.9,30.29,SW,218,0.0,0.0,59,0.00,,,0.20,VWS V14.01,2013-02-18 04:45:00,
2013-02-17 23:50:00,32.6,19.9,30.29,SW,218,1.0,2.0,59,0.00,,,0.20,VWS V14.01,2013-02-18 04:50:00,
2013-02-17 23:55:00,32.7,20.0,30.29,SW,217,0.0,2.0,59,0.00,,,0.20,VWS V14.01,2013-02-18 04:55:00,